Regional Weather Roundup
Issued by NWS

Home | Current Version | Previous Version | Text Only | Print | Product List | Glossary Off
Versions: 1 2 3 4 5 6 7 8 9 10 11 12 13 14 15 16 17 18 19 20 21 22 23 24 25 26 27 28 29 30 31 32 33 34 35 36 37 38 39 40 41 42 43 44 45 46 47 48 49 50

000
ASUS43 KTOP 011308
RWRKS

WEATHER ROUNDUP FOR KANSAS
NATIONAL WEATHER SERVICE GOODLAND KS
800 AM CDT TUE SEP 01 2015

NOTE:  "FAIR" INDICATES FEW OR NO CLOUDS BELOW 12,000 FEET WITH NO
SIGNIFICANT WEATHER AND/OR OBSTRUCTIONS TO VISIBILITY.

KSZ001>006-013>018-027>032-041>047-011400-
NORTHWEST KANSAS

CITY           SKY/WX    TMP DP  RH WIND       PRES   REMARKS
GOODLAND       PTCLDY    60  58  92 W7        30.01R
HAYS           PTCLDY    73  57  56 S12       29.95S
HILL CITY      CLOUDY    71  59  65 SE6       29.96R
RUSSELL        MOCLDY    76  61  59 S14G25    29.94S
$$

KSZ061>065-074>080-084>089-011400-
SOUTHWEST KANSAS

CITY           SKY/WX    TMP DP  RH WIND       PRES   REMARKS
DODGE CITY     CLEAR     67  60  78 S14       29.99R
ELKHART          N/A     67  57  70 CALM        N/A
GARDEN CITY    CLEAR     63  55  75 SW5       29.99R
GREAT BEND     MOCLDY    75  61  60 S18G25    29.97S
LIBERAL        PTCLDY    63  54  72 CALM      30.02R
PRATT          PTCLDY    70  59  68 MISG      30.02R
$$

KSZ066>073-081>083-090>101-011400-
SOUTHEAST KANSAS

CITY           SKY/WX    TMP DP  RH WIND       PRES   REMARKS
CHANUTE        SUNNY     71  68  90 SE6       30.05S
COFFEYVILLE    SUNNY     70  68  93 SE5       30.05R
HUTCHINSON     SUNNY     71  62  73 S9        30.01S
MEDICINE LODGE   N/A     71  63  75 SE5       30.00S
NEWTON         SUNNY     72  59  64 S12       30.05S
PARSONS        SUNNY     71  68  90 S5        30.06S
WICHITA INTL   MOSUNNY   71  63  75 S6        30.02R
WICHITA JABRA  SUNNY     73  62  68 SW12      30.02S
WICHITA MCCONL SUNNY     72  60  64 S9        30.02S
WINFIELD       SUNNY     72  64  76 S8        30.04S
$$

KSZ007>012-019>026-033>040-048>060-102>105-011400-
NORTHEAST KANSAS

CITY           SKY/WX    TMP DP  RH WIND       PRES   REMARKS
CONCORDIA      MOSUNNY   72  62  71 S14       29.96R
EMPORIA        SUNNY     70  65  84 S10       30.02R
LAWRENCE       PTSUNNY   72  68  87 SE6       30.03R
MANHATTAN      SUNNY     72  66  81 SW8       29.98S
MARYSVILLE     MOSUNNY  N/A N/A N/A S6        29.98R
OLATHE IND     MOSUNNY   71  68  90 S9        30.05R FOG
OLATHE EXE     SUNNY     71  68  90 S7        30.04S
SALINA         SUNNY     72  63  73 S9        29.97S
TOPEKA BILLARD SUNNY     73  69  87 SE3       30.01S
TOPEKA FORBES  MOSUNNY   73  68  84 S7        30.02R
$$


USA.gov is the U.S. government's official web portal to all federal, state and local government web resources and services.